Regional Weather Roundup
Issued by NWS

Home | Current Version | Previous Version | Text Only | Print | Product List | Glossary Off
Versions: 1 2 3 4 5 6 7 8 9 10 11 12 13 14 15 16 17 18 19 20 21 22 23 24 25 26 27 28 29 30 31 32 33 34 35 36 37 38 39 40 41 42 43 44 45 46 47 48 49 50

000
ASUS43 KLSX 221257
RWRMO

WEATHER SUMMARY FOR MISSOURI
NATIONAL WEATHER SERVICE SPRINGFIELD MO
800 AM CDT SAT JUL 22 2017

NOTE: "FAIR" INDICATES FEW OR NO CLOUDS BELOW 12,000 FEET WITH NO
       SIGNIFICANT WEATHER AND/OR OBSTRUCTIONS TO VISIBILITY.
       CURRENT SKY AND/OR WEATHER CONDITIONS ARE NOT AVAILABLE FOR
       CHILLICOTHE AND FARMINGTON.

MOZ001>031-035>038-043-044-053-054-221400-
...NORTHERN AND WESTERN MISSOURI...

CITY           SKY/WX    TMP DP  RH WIND       PRES   REMARKS
KANSAS CTY INT MOSUNNY   83  73  72 SW15      29.83R
LEE`S SUMMIT   SUNNY     83  72  69 SW16G23   29.86R
ST JOSEPH      SUNNY     83  76  79 CALM      29.83R HX  91
CHILLICOTHE      N/A     84  75  74 CALM      29.83R HX  92

$$
MOZ066>068-077>081-088>096-101>105-221400-
...SOUTHWEST MISSOURI...

CITY           SKY/WX    TMP DP  RH WIND       PRES   REMARKS
SPRINGFIELD    SUNNY     79  72  79 S7        29.95S
JOPLIN         SUNNY     83  73  72 S10       29.93S
BRANSON        SUNNY     81  72  74 S5        29.99R

$$
MOZ032>034-039>042-045>050-055>058-069>072-221400-
...CENTRAL MISSOURI...

CITY           SKY/WX    TMP DP  RH WIND       PRES   REMARKS
COLUMBIA       NOT AVBL
JEFFERSON CITY SUNNY     83  74  74 SW6       29.88R
ROLLA          SUNNY     79  73  82 SW14      29.92S
SEDALIA        SUNNY     83  74  74 SW15      29.88S
WARRENSBURG    SUNNY     81  70  69 S9        29.86R

$$
MOZ051-052-059>065-221400-
...EAST CENTRAL MISSOURI...

CITY           SKY/WX    TMP DP  RH WIND       PRES   REMARKS
ST LOUIS INTL  MOSUNNY   88  71  57 W16       29.89R HX  94

$$
MOZ072>076-082>087-097>100-106>115-221400-
...SOUTH CENTRAL AND SOUTHEAST MISSOURI...

CITY           SKY/WX    TMP DP  RH WIND       PRES   REMARKS
CAPE GIRARDEAU SUNNY     82  75  79 SW8       29.92R
POPLAR BLUFF   SUNNY     81  78  91 SW7       29.93R FOG
WEST PLAINS    SUNNY     80  73  79 SW6       29.99R

$$



USA.gov is the U.S. government's official web portal to all federal, state and local government web resources and services.